星链-30836 (STARLINK-30836 )

导读

STARLINK-30836是美国太空探索技术公司SpaceX星链(Starlink)星座中的一颗卫星,于2023年11月3日发射。星链计划旨在构建全球覆盖的低轨卫星互联网,为全球网络欠发达地区提供高速宽带接入,该卫星属于星座组网过程中的一环,助力完善星链星座的全球通信服务覆盖能力,目前星链已累计发射数万颗卫星,持续推进星座部署。

Basic Information
目录编号:
58221
目录名称:
STARLINK-30836
国际标识:
2023-170R
轨道中心:
EARTH
卫星名称:
星链-30836
卫星全名:
星链-30836 (STARLINK-30836 )
卫星状态:
在轨 (已飞行1036 天)
发射日期:
2023-11-03 UTC
国别 :
美国 (US)
星等 :
--
Orbit Information
数据来源 国际轨道数据
星历时间: 2026-09-03T10:48:50+0800
1天前
查看轨道信息
半长轴: 6861.208km
偏心率: 0.0000999
轨道倾角: 43.002°
近地点辐角 274.887°
升交点赤经 272.297°
平近点角 85.186°
近地点: 482.385km
远地点: 483.757km
周期: 94.267分钟
每日圈数: 15.27573
Detailed Information
固有亮度:
5
最大亮度:
0.3
卫星平台:
Starlink v2.0 mini
覆盖范围:
全球
运营商:
太空探索技术公司
运营商所在国:
美国
制造商(研发单位):
太空探索技术公司
制造商所在国:
美国
使用方式:
暂无
Satellite Introduction
星链(Starlink)计划是由太空探索技术公司(SpaceX)提出的一个巨型低轨卫星互联网星座项目,计划在2019年至2024年间在太空搭建由约1.2万颗卫星组成的“星链”网络,其中1584颗将部署在地球上空550千米处的近地轨道,并从2020年开始工作。该卫星仍在工作。
2D Orbit Map
3D Orbit Map
Orbit Altitude Analysis Chart
Orbit Inclination Analysis Chart
Orbit Comprehensive Analysis Chart
View Comprehensive Chart
Conjunction Data List
Event ID Objects TCA Miss Dist (km) Collision Risk Probability Collision Risk Index (CRI) Action
CDM_260904-225205-822106-661422
2026-09-04T
22:52:28+0000
0.213 km
中距离
6.507177E-4 高风险 0.91
CDM_260905-050805-822106-378221
2026-09-05T
05:08:26+0000
1.101 km
极远距离
1.457758E-5 中风险 0.58
CDM_260905-002605-822106-661421
2026-09-05T
00:26:37+0000
2.138 km
极远距离
1.873354E-6 低风险 0.4
CDM_260905-064205-822106-378221
2026-09-05T
06:42:36+0000
2.148 km
极远距离
1.867659E-6 低风险 0.4
CDM_260904-211805-822106-661421
2026-09-04T
21:18:18+0000
2.397 km
极远距离
1.477385E-6 低风险 0.38
CDM_260905-033405-822106-378221
2026-09-05T
03:34:17+0000
2.966 km
极远距离
1.076117E-6 低风险 0.36